Location: Plzen
(49.7500°N, 13.3670°E)
Time: 03:27:39
(UTC+01:00)

ISS - Visible Passes

Search period start: 22 January 2019 00:00
Search period end: 01 February 2019 00:00
Orbit: 404 x 410 km, 51.6° (Epoch: 22 January)

Date Brightness Start Highest point End Pass type
(mag) Time Alt. Az. Time Alt. Az. Time Alt. Az.
22 Jan -0.8 19:29:51 10° SSW 19:30:01 11° SSW 19:30:01 11° SSW visible
23 Jan -2.0 18:39:05 10° SSW 18:41:05 20° SSE 18:41:05 20° SSE visible
24 Jan -1.6 17:48:49 10° S 17:50:33 14° SE 17:52:04 11° ESE visible
24 Jan -1.7 19:23:18 10° SW 19:24:48 24° SW 19:24:48 24° SW visible
25 Jan -3.2 18:32:11 10° SW 18:35:17 40° SSE 18:35:43 37° SE visible
26 Jan -2.4 17:41:14 10° SSW 17:44:03 26° SE 17:46:33 12° E visible
26 Jan -2.5 19:17:02 10° WSW 19:19:16 40° WSW 19:19:16 40° WSW visible
27 Jan -3.8 18:25:41 10° WSW 18:28:58 70° SSE 18:30:03 38° E visible
27 Jan -0.5 20:02:19 10° W 20:02:46 13° W 20:02:46 13° W visible
28 Jan -3.2 17:34:26 10° SW 17:37:38 48° SSE 17:40:47 10° ENE visible
28 Jan -3.0 19:10:51 10° W 19:13:30 50° WNW 19:13:30 50° WNW visible
29 Jan -3.8 18:19:24 10° W 18:22:42 78° NNW 18:24:13 30° ENE visible
29 Jan -0.7 19:56:07 10° WNW 19:56:55 16° WNW 19:56:55 16° WNW visible
30 Jan -3.8 17:27:58 10° WSW 17:31:16 82° SSE 17:34:35 10° ENE visible
30 Jan -3.3 19:04:39 10° W 19:07:36 55° NNW 19:07:36 55° NNW visible
31 Jan -3.6 18:13:09 10° W 18:16:27 62° N 18:18:17 24° ENE visible
31 Jan -1.1 19:49:50 10° WNW 19:50:59 20° WNW 19:50:59 20° WNW visible
